This demonstration page uses our WeatherBlox Daily Observations layout. Learn more.

Left ArrowRight Arrow

39.29038, -76.61219

Hourly Observations for January 2, 2020

Temp ( °F °C ) Dew Point ( °F °C ) Humidity (%) Winds ( mph kmh ) Pressure ( in mb ) Visibility ( mi km ) Precip ( " mm )
12:54 am 00:54 undefined 36 2.2 24 -4.4 62 62 undefined N/A 29.93 1014 N/A 0.00 0.00
1:54 am 01:54 undefined 34 1.1 24 -4.4 67 67 undefined N/A 29.95 1014 N/A 0.00 0.00
2:54 am 02:54 undefined 34 1.1 23 -5 64 64 undefined N/A 29.96 1014 N/A 0.00 0.00
3:54 am 03:54 undefined 35 1.7 24 -4.4 64 64 undefined N/A 29.97 1015 N/A 0.00 0.00
4:54 am 04:54 undefined 34 1.1 25 -3.9 70 70 undefined N/A 29.98 1015 N/A 0.00 0.00
5:54 am 05:54 undefined 34 1.1 25 -3.9 70 70 undefined N/A 29.98 1015 N/A 0.00 0.00
6:54 am 06:54 undefined 33 0.6 26 -3.3 75 75 undefined N/A 29.99 1016 N/A 0.00 0.00
7:54 am 07:54 undefined 33 0.6 24 -4.4 70 70 undefined N/A 29.98 1015 N/A 0.00 0.00
8:54 am 08:54 undefined 37 2.8 25 -3.9 62 62 undefined N/A 30.04 1017 N/A 0.00 0.00
9:54 am 09:54 undefined 39 3.9 27 -2.8 62 62 undefined N/A 30.04 1017 N/A 0.00 0.00
10:54 am 10:54 undefined 41 5 29 -1.7 62 62 undefined N/A 30.02 1017 N/A 0.00 0.00
11:54 am 11:54 undefined 42 5.6 30 -1.1 62 62 undefined N/A 29.97 1015 N/A 0.00 0.00
12:54 pm 12:54 undefined 47 8.3 32 0 56 56 undefined N/A 29.99 1016 N/A 0.00 0.00
1:54 pm 13:54 undefined 49 9.4 32 0 52 52 undefined N/A 29.94 1014 N/A 0.00 0.00
2:54 pm 14:54 undefined 49 9.4 32 0 52 52 undefined N/A 29.90 1013 N/A 0.00 0.00
3:54 pm 15:54 undefined 49 9.4 34 1.1 56 56 undefined N/A 29.91 1013 N/A 0.00 0.00
4:54 pm 16:54 undefined 48 8.9 34 1.1 58 58 undefined N/A 29.90 1013 N/A 0.00 0.00
5:54 pm 17:54 undefined 47 8.3 35 1.7 63 63 undefined N/A 29.91 1013 N/A 0.00 0.00
6:54 pm 18:54 undefined 48 8.9 35 1.7 61 61 undefined N/A 29.90 1013 N/A 0.00 0.00
7:54 pm 19:54 undefined 47 8.3 35 1.7 63 63 undefined N/A 29.91 1013 N/A 0.00 0.00
8:54 pm 20:54 undefined 48 8.9 35 1.7 61 61 undefined N/A 29.87 1012 N/A 0.00 0.00
9:54 pm 21:54 undefined 47 8.3 35 1.7 63 63 undefined N/A 29.87 1012 N/A 0.00 0.00
10:54 pm 22:54 undefined 47 8.3 37 2.8 69 69 undefined N/A 29.88 1012 N/A 0.00 0.00
11:54 pm 23:54 undefined 47 8.3 37 2.8 69 69 undefined N/A 29.85 1011 N/A 0.00 0.00

Powered by AerisWeather